Terug naar catalogus

STARLINK-34876

ActiefCommunicatieSSO
NORAD 65400·PAYLOAD·🇺🇸 United States

Gelanceerd Aug 30, 2025 vanaf Vandenberg Space Force Base

Loading…

Volgende Passages (komende 24 uur)

TLE

VersSource: CelesTrak SupGP

Epoch: Sep 15, 2026, 03:49 UTC

1 65400C 25191X   26258.15951389 -.00005877  00000+0 -18232-3 0  2582
2 65400  97.2842 124.2540 0001873  95.8177 106.4794 15.33461974    18

Volg STARLINK-34876 in realtime met AllMySat

Download on the App Store